SCP
-0 0 0 0 0 3 2 0 1 0 2 2 2 2 1 0 1 0 0 0 0 0 0 0 0 1 1 0 0 0 0 0 0 0 0 0 0 0 0 0 0 0 0
0 0 0 0 1 2 1 1 1 0 1 -1 1 3 1 1 1 1 0 0 0 0 0 0 0 0 0 0 0 0 0 0 0 0 0 0 0 0 0 0 0 0 0
0 0 0 0 1 1 0 0 0 1 1 1 2 3 2 2 2 1 1 0 0 1 0 0 0 0 0 0 0 0 0 0 0 0 0 0 0 0 0 0 0 0 0
0 0 0 0 3 4 1 1 0 0 3 4 4 1 1 2 2 1 1 1 0 0 0 0 0 0 0 0 0 0 0 0 0 -0 -0 0 0 0 0 0 0 0 0
0 -0 0 0 0 8 6 3 0 0 1 1 0 1 1 3 3 2 0 0 0 0 0 0 0 0 0 0 0 0 0 0 0 0 0 0 0 0 0 0 0 0 0
-0 -0 0 0 1 12 11 8 3 1 1 0 -0 0 1 2 3 1 1 0 0 0 0 0 0 0 0 0 0 -0 -0 0 0 0 0 0 0 0 0 0 0 0 0
0 -0 -0 0 1 8 9 9 6 3 2 1 1 2 3 3 1 1 0 0 0 0 0 0 0 0 0 0 -0 -0 0 0 0 0 0 0 0 0 0 0 0 0 0
0 0 0 0 0 5 8 7 5 4 3 2 3 3 4 2 1 0 0 0 0 0 0 0 0 0 0 0 0 0 0 0 0 0 0 0 0 0 0 0 0 0 0
0 0 0 0 0 4 5 7 4 3 3 3 3 2 1 0 0 0 0 0 0 0 0 0 0 0 0 0 0 0 0 0 0 0 0 0 0 0 0 0 0 0 0
0 0 0 -0 0 3 6 6 5 3 3 3 2 1 0 0 0 0 0 0 0 0 0 0 0 0 0 0 0 0 0 0 0 0 0 0 0 0 0 0 0 0 0
-0 0 -0 0 0 4 5 5 3 2 4 4 3 1 1 0 0 0 0 0 0 0 0 0 0 0 0 0 -0 0 0 0 0 0 0 0 0 0 0 0 0 0 0
0 -0 0 0 1 4 4 3 3 2 5 4 2 1 0 0 0 0 0 0 0 0 0 0 0 0 0 0 0 0 0 0 0 0 0 0 0 0 0 0 0 0 0
0 0 0 0 2 4 4 3 3 7 6 2 1 0 0 0 0 0 0 0 0 0 0 0 0 0 0 0 0 0 0 0 0 0 0 0 0 0 0 0 0 0 0
-0 -1 1 2 4 3 1 2 2 4 2 1 0 0 0 0 0 0 0 0 0 0 0 0 0 0 0 0 0 0 0 0 0 0 0 0 0 0 0 0 0 0 0
-1 1 0 1 3 2 0 0 0 0 0 0 0 0 0 0 0 0 0 0 0 0 0 0 0 0 0 0 0 0 0 0 0 0 0 0 0 0 0 0 0 0 0
-0 0 0 1 0 0 0 0 0 0 0 0 0 0 0 0 0 0 0 0 0 0 0 0 0 0 0 0 0 0 0 0 0 0 0 0 0 0 0 0 0 0 0
-0 0 0 1 1 0 0 0 0 0 0 0 0 0 0 0 0 0 0 0 0 0 0 0 0 0 0 0 0 0 0 0 0 0 0 0 0 0 0 0 0 0 0
0 1 0 0 0 0 0 0 0 0 0 0 0 0 0 0 0 0 0 0 0 0 0 0 0 0 0 0 0 0 0 0 0 0 0 0 0 0 0 0 0 0 0
0 0 0 0 0 0 0 0 0 0 0 0 0 0 0 0 0 0 0 0 0 0 0 0 0 0 0 0 0 0 0 0 0 0 -0 0 0 0 0 0 0 0 0
0 0 0 0 0 0 0 0 0 0 0 0 0 0 0 0 0 0 0 0 0 0 0 0 0 0 0 0 0 0 0 0 0 0 -0 0 0 0 0 0 0 0 0
0 0 0 0 0 0 0 0 0 0 0 0 0 0 0 0 0 0 0 0 0 0 0 0 0 0 0 0 0 0 0 0 0 0 0 0 0 0 0 0 0 0 0
0 0 0 0 0 0 0 0 0 0 0 0 0 0 0 0 0 0 0 0 0 0 0 0 0 0 0 0 0 0 0 0 0 0 0 0 0 0 0 0 -0 -0 0
0 0 0 0 0 0 0 0 0 0 0 0 0 0 0 0 0 0 0 0 0 0 0 0 0 0 0 0 0 0 0 0 0 0 0 0 0 0 0 0 0 0 0
0 0 0 0 0 0 0 0 0 0 0 0 0 0 0 0 0 0 0 0 -0 0 0 0 0 0 0 0 0 0 0 0 0 0 0 0 0 0 0 0 0 -0 0
0 0 0 0 0 0 0 0 0 0 0 0 0 0 0 0 0 0 0 0 0 0 0 0 0 0 0 0 0 0 0 0 0 0 0 0 0 0 0 0 0 -0 0
0 0 0 0 0 0 0 0 0 0 0 0 0 0 0 0 0 0 0 -0 0 -0 -0 0 0 0 0 0 0 0 0 0 0 0 0 0 0 0 0 0 0 0 0
Wind_Speed_500mb
76 79 79 71 31 48 56 65 104 84 80 60 74 68 65 55 55 42 34 24 39 38 35 37 31 38 40 35 27 25 25 21 15 19 18 11 13 11 6 4 8 15 29
73 79 80 77 43 55 58 59 87 117 75 93 90 77 70 58 58 51 44 31 32 33 37 41 33 37 34 35 36 33 28 23 20 10 2 5 6 10 2 3 10 19 24
68 61 92 82 57 68 70 71 87 112 112 100 96 81 66 60 66 58 51 47 46 41 39 43 30 30 33 28 24 21 23 17 17 15 10 8 13 9 10 10 15 20 23
79 78 59 91 73 73 74 73 100 99 105 97 90 88 85 75 69 61 61 57 50 44 36 38 30 30 19 17 10 12 8 5 6 3 9 5 6 7 11 13 23 17 15
73 74 81 86 90 90 89 80 88 94 111 88 94 96 85 77 73 72 65 55 50 40 32 28 22 15 16 8 10 14 9 7 6 2 2 4 3 4 11 19 34 18 19
83 74 82 66 76 93 101 99 95 100 102 111 123 92 95 90 87 78 68 61 51 37 33 28 15 17 23 26 21 23 17 8 5 3 3 4 8 15 12 17 25 14 22
90 77 83 82 44 81 92 102 105 99 101 101 94 80 93 87 86 79 70 59 50 42 36 25 33 36 33 27 20 15 14 10 5 3 5 7 8 11 14 14 20 23 13
75 74 83 80 53 71 89 90 95 97 92 98 86 82 90 84 79 73 62 55 50 43 35 43 42 39 30 19 18 19 13 8 8 9 12 10 9 15 27 24 25 28 24
61 67 86 88 72 62 88 92 95 91 92 98 87 82 76 72 74 64 51 52 50 48 46 47 39 31 23 22 21 15 10 10 13 15 8 6 9 10 11 10 11 19 23
56 59 84 96 82 58 91 94 91 95 100 96 87 88 79 61 67 63 59 58 58 55 53 46 34 27 23 23 20 19 19 16 15 17 11 6 8 6 5 5 12 14 23
43 66 94 105 82 68 86 88 89 93 109 102 100 96 82 82 68 60 57 65 58 56 50 40 31 29 25 22 24 22 23 23 22 21 19 14 13 12 8 14 17 18 25
38 38 86 105 75 76 89 84 93 98 122 98 97 95 89 73 65 70 66 58 63 54 46 38 37 36 32 27 26 24 20 20 19 13 9 13 13 15 19 20 22 27 28
49 56 42 105 75 82 87 89 91 104 104 100 104 93 89 85 85 73 64 65 64 56 47 41 41 39 35 30 26 19 20 19 7 6 12 15 19 25 25 27 28 30 33
49 26 29 63 79 74 67 73 79 100 117 120 111 102 92 92 83 78 75 69 61 57 52 48 42 36 33 29 26 20 24 10 11 8 12 21 27 28 31 35 36 37 41
7 31 46 64 80 76 71 64 46 10 146 124 113 100 100 95 88 84 76 68 63 57 51 46 41 36 31 24 22 25 19 7 3 10 18 23 28 33 38 40 39 39 43
13 40 59 79 88 83 74 75 41 42 129 128 113 107 103 94 93 90 79 71 63 55 47 40 36 36 31 26 19 14 16 10 13 17 19 25 31 33 35 34 33 33 35
40 54 57 86 96 78 63 73 79 41 79 106 107 104 99 99 94 89 79 67 58 50 45 44 40 37 32 25 20 17 21 15 19 23 23 33 38 39 38 36 34 31 31
54 61 56 85 121 114 99 115 107 103 102 101 105 102 100 97 90 81 72 64 55 50 49 43 39 35 33 25 22 23 18 22 20 24 30 40 42 40 38 37 35 35 32
69 80 79 96 120 127 98 109 81 111 106 98 95 94 96 90 83 79 70 62 56 52 48 42 39 32 32 26 25 21 17 22 18 19 32 38 36 44 41 44 48 46 36
83 103 95 102 115 122 103 101 92 91 92 92 92 89 85 85 83 76 66 58 52 55 48 44 37 33 32 26 23 16 16 16 12 21 34 37 42 48 50 48 50 59 41
97 108 107 114 117 116 117 115 90 86 87 88 87 83 80 78 74 70 61 55 55 54 48 45 39 34 28 27 18 15 18 17 17 25 35 43 43 44 44 43 46 54 36
106 118 117 115 114 113 111 108 99 92 89 85 83 85 83 77 69 67 61 56 54 53 50 44 42 35 29 26 26 23 17 18 22 35 37 35 36 35 38 41 40 49 43
102 114 98 107 97 101 108 110 98 100 96 98 97 89 81 71 63 65 60 58 51 50 46 40 40 34 29 28 29 30 30 31 32 32 29 29 30 35 35 37 38 51 48
108 117 109 97 97 104 108 108 107 100 97 94 92 87 83 76 64 58 55 57 53 51 37 33 25 24 26 29 35 41 39 36 28 23 26 27 30 35 38 40 41 54 52
101 98 103 104 101 106 105 97 94 91 96 95 88 82 77 73 69 61 57 56 49 26 36 33 30 34 43 46 45 41 38 31 24 24 29 35 38 40 41 43 43 51 54
102 97 100 103 98 95 92 85 86 88 90 88 80 75 73 71 71 72 72 58 47 32 24 25 31 47 49 46 43 40 33 27 26 31 38 40 40 41 41 43 43 48 55
Wind_Direction_500mb
262 266 268 268 256 219 196 189 176 169 182 194 202 196 196 189 189 190 192 190 194 200 186 194 201 212 213 220 231 244 257 256 263 274 269 261 242 257 288 318 355 346 351
256 256 261 260 235 212 201 207 197 188 193 189 202 200 191 190 192 193 196 197 190 194 196 199 203 206 212 226 240 248 260 277 282 267 338 87 110 91 240 292 350 348 356
269 259 248 243 242 211 200 193 192 188 187 188 195 200 190 192 190 192 188 181 185 196 205 205 204 214 227 233 238 256 275 290 282 266 257 250 218 299 215 314 330 349 3
256 260 262 231 232 202 202 200 192 199 204 196 196 197 191 189 189 185 175 178 186 197 206 216 222 228 226 233 218 241 248 229 308 55 50 46 352 332 289 316 341 0 356
253 255 251 240 232 203 194 201 196 188 182 193 203 197 191 190 181 181 178 180 186 195 200 203 214 201 206 206 159 146 139 130 95 185 351 355 317 313 321 330 345 54 48
251 251 249 253 224 204 193 195 195 192 198 195 196 195 185 185 181 183 184 183 179 179 190 199 178 181 146 143 128 110 116 142 149 106 9 22 24 10 17 349 344 11 56
243 242 245 247 257 194 198 198 196 199 196 197 180 187 186 185 186 187 189 178 176 185 178 178 156 146 139 130 122 130 135 125 118 89 88 79 44 9 350 346 16 6 2
236 232 241 241 243 201 197 201 204 203 200 193 182 186 186 187 190 192 187 180 171 174 175 160 145 134 136 134 116 114 113 110 93 93 142 114 55 44 45 35 14 353 354
243 247 240 240 239 207 205 200 200 199 198 189 184 180 187 192 185 180 176 167 172 169 164 151 145 145 130 118 108 106 108 89 84 86 137 98 86 64 46 28 344 0 350
241 265 236 239 238 224 205 202 194 197 192 183 183 175 178 193 191 182 178 172 167 163 156 150 149 144 127 115 105 96 90 74 66 73 85 87 112 74 82 335 327 332 345
275 259 229 230 225 217 207 200 196 193 185 174 174 180 179 181 184 180 171 168 161 152 149 149 144 130 119 107 97 97 91 72 64 64 39 48 29 16 328 324 319 329 332
284 267 213 223 215 212 206 203 199 194 175 179 180 182 180 181 175 171 169 153 149 145 146 145 134 124 120 112 101 110 93 67 70 62 19 52 29 356 339 336 338 340 337
310 305 246 214 207 210 202 195 197 178 177 175 174 171 168 167 168 166 156 152 145 143 140 134 128 125 124 119 128 120 98 94 64 39 32 24 8 1 3 357 352 345 341
315 297 223 197 193 194 192 185 179 178 168 170 170 165 164 163 160 155 149 144 143 140 141 141 136 133 133 132 126 119 106 103 98 67 22 15 358 1 358 355 351 342 338
358 166 176 178 165 172 174 151 174 45 159 154 157 158 160 158 153 148 147 143 145 147 146 143 137 135 141 136 130 123 109 126 71 32 19 10 0 348 348 349 346 338 338
252 153 145 157 149 160 158 165 137 35 126 152 148 150 150 149 150 149 144 149 150 149 146 142 137 137 139 138 146 116 105 84 54 20 355 357 347 356 354 355 350 348 342
180 131 136 134 140 143 156 144 166 132 134 138 140 146 150 149 150 144 147 150 145 140 136 130 129 126 127 125 113 87 76 61 39 50 27 8 10 3 5 5 5 12 17
180 162 143 131 126 126 127 129 138 153 147 140 145 150 150 151 147 141 144 142 137 134 126 124 117 119 116 115 105 95 81 67 54 30 18 14 13 18 21 26 30 35 37
164 151 137 131 131 135 140 138 145 137 142 140 145 153 155 148 141 142 138 135 135 127 122 117 113 117 118 112 111 112 90 67 46 13 11 21 35 41 38 34 33 29 37
138 142 129 136 135 139 150 138 136 138 132 141 148 151 148 143 141 138 135 133 125 119 118 117 119 118 121 119 137 119 107 109 70 15 32 44 47 43 39 32 27 20 27
122 131 121 122 135 142 142 140 133 131 138 147 148 143 141 138 134 135 130 129 121 115 118 116 111 117 128 148 134 132 125 102 65 58 58 51 46 40 36 30 23 20 18
124 129 129 124 134 141 141 135 136 140 146 143 138 135 135 135 134 125 123 115 111 112 112 116 116 114 118 121 120 135 120 93 83 72 63 57 48 38 35 33 20 15 18
118 128 130 131 127 127 139 135 136 144 144 141 139 138 131 129 124 116 113 111 108 108 113 120 114 110 101 101 109 111 107 106 86 76 66 56 45 37 40 38 19 11 19
120 126 124 124 129 132 136 137 142 147 144 137 133 133 131 126 122 117 119 114 114 119 119 108 105 112 112 100 102 101 102 99 92 76 65 60 56 46 41 39 23 14 22
120 127 127 128 125 132 136 144 147 144 140 138 136 133 130 131 131 134 141 133 135 130 112 106 109 116 112 110 110 108 100 90 80 70 64 59 51 42 39 36 27 14 16
123 120 122 127 132 139 143 144 144 147 140 137 136 135 138 141 142 139 130 130 133 141 136 104 116 112 105 105 107 103 95 84 67 61 56 55 47 38 34 30 23 11 11
Wind_Speed_850mb
76 79 79 71 31 48 56 65 104 84 80 60 74 68 65 55 55 42 34 24 39 38 35 37 31 38 40 35 27 25 25 21 15 19 18 11 13 11 6 4 8 15 29
73 79 80 77 43 55 58 59 87 117 75 93 90 77 70 58 58 51 44 31 32 33 37 41 33 37 34 35 36 33 28 23 20 10 2 5 6 10 2 3 10 19 24
68 61 92 82 57 68 70 71 87 112 112 100 96 81 66 60 66 58 51 47 46 41 39 43 30 30 33 28 24 21 23 17 17 15 10 8 13 9 10 10 15 20 23
79 78 59 91 73 73 74 73 100 99 105 97 90 88 85 75 69 61 61 57 50 44 36 38 30 30 19 17 10 12 8 5 6 3 9 5 6 7 11 13 23 17 15
73 74 81 86 90 90 89 80 88 94 111 88 94 96 85 77 73 72 65 55 50 40 32 28 22 15 16 8 10 14 9 7 6 2 2 4 3 4 11 19 34 18 19
83 74 82 66 76 93 101 99 95 100 102 111 123 92 95 90 87 78 68 61 51 37 33 28 15 17 23 26 21 23 17 8 5 3 3 4 8 15 12 17 25 14 22
90 77 83 82 44 81 92 102 105 99 101 101 94 80 93 87 86 79 70 59 50 42 36 25 33 36 33 27 20 15 14 10 5 3 5 7 8 11 14 14 20 23 13
75 74 83 80 53 71 89 90 95 97 92 98 86 82 90 84 79 73 62 55 50 43 35 43 42 39 30 19 18 19 13 8 8 9 12 10 9 15 27 24 25 28 24
61 67 86 88 72 62 88 92 95 91 92 98 87 82 76 72 74 64 51 52 50 48 46 47 39 31 23 22 21 15 10 10 13 15 8 6 9 10 11 10 11 19 23
56 59 84 96 82 58 91 94 91 95 100 96 87 88 79 61 67 63 59 58 58 55 53 46 34 27 23 23 20 19 19 16 15 17 11 6 8 6 5 5 12 14 23
43 66 94 105 82 68 86 88 89 93 109 102 100 96 82 82 68 60 57 65 58 56 50 40 31 29 25 22 24 22 23 23 22 21 19 14 13 12 8 14 17 18 25
38 38 86 105 75 76 89 84 93 98 122 98 97 95 89 73 65 70 66 58 63 54 46 38 37 36 32 27 26 24 20 20 19 13 9 13 13 15 19 20 22 27 28
49 56 42 105 75 82 87 89 91 104 104 100 104 93 89 85 85 73 64 65 64 56 47 41 41 39 35 30 26 19 20 19 7 6 12 15 19 25 25 27 28 30 33
49 26 29 63 79 74 67 73 79 100 117 120 111 102 92 92 83 78 75 69 61 57 52 48 42 36 33 29 26 20 24 10 11 8 12 21 27 28 31 35 36 37 41
7 31 46 64 80 76 71 64 46 10 146 124 113 100 100 95 88 84 76 68 63 57 51 46 41 36 31 24 22 25 19 7 3 10 18 23 28 33 38 40 39 39 43
13 40 59 79 88 83 74 75 41 42 129 128 113 107 103 94 93 90 79 71 63 55 47 40 36 36 31 26 19 14 16 10 13 17 19 25 31 33 35 34 33 33 35
40 54 57 86 96 78 63 73 79 41 79 106 107 104 99 99 94 89 79 67 58 50 45 44 40 37 32 25 20 17 21 15 19 23 23 33 38 39 38 36 34 31 31
54 61 56 85 121 114 99 115 107 103 102 101 105 102 100 97 90 81 72 64 55 50 49 43 39 35 33 25 22 23 18 22 20 24 30 40 42 40 38 37 35 35 32
69 80 79 96 120 127 98 109 81 111 106 98 95 94 96 90 83 79 70 62 56 52 48 42 39 32 32 26 25 21 17 22 18 19 32 38 36 44 41 44 48 46 36
83 103 95 102 115 122 103 101 92 91 92 92 92 89 85 85 83 76 66 58 52 55 48 44 37 33 32 26 23 16 16 16 12 21 34 37 42 48 50 48 50 59 41
97 108 107 114 117 116 117 115 90 86 87 88 87 83 80 78 74 70 61 55 55 54 48 45 39 34 28 27 18 15 18 17 17 25 35 43 43 44 44 43 46 54 36
106 118 117 115 114 113 111 108 99 92 89 85 83 85 83 77 69 67 61 56 54 53 50 44 42 35 29 26 26 23 17 18 22 35 37 35 36 35 38 41 40 49 43
102 114 98 107 97 101 108 110 98 100 96 98 97 89 81 71 63 65 60 58 51 50 46 40 40 34 29 28 29 30 30 31 32 32 29 29 30 35 35 37 38 51 48
108 117 109 97 97 104 108 108 107 100 97 94 92 87 83 76 64 58 55 57 53 51 37 33 25 24 26 29 35 41 39 36 28 23 26 27 30 35 38 40 41 54 52
101 98 103 104 101 106 105 97 94 91 96 95 88 82 77 73 69 61 57 56 49 26 36 33 30 34 43 46 45 41 38 31 24 24 29 35 38 40 41 43 43 51 54
102 97 100 103 98 95 92 85 86 88 90 88 80 75 73 71 71 72 72 58 47 32 24 25 31 47 49 46 43 40 33 27 26 31 38 40 40 41 41 43 43 48 55
Wind_Direction_850mb
262 266 268 268 256 219 196 189 176 169 182 194 202 196 196 189 189 190 192 190 194 200 186 194 201 212 213 220 231 244 257 256 263 274 269 261 242 257 288 318 355 346 351
256 256 261 260 235 212 201 207 197 188 193 189 202 200 191 190 192 193 196 197 190 194 196 199 203 206 212 226 240 248 260 277 282 267 338 87 110 91 240 292 350 348 356
269 259 248 243 242 211 200 193 192 188 187 188 195 200 190 192 190 192 188 181 185 196 205 205 204 214 227 233 238 256 275 290 282 266 257 250 218 299 215 314 330 349 3
256 260 262 231 232 202 202 200 192 199 204 196 196 197 191 189 189 185 175 178 186 197 206 216 222 228 226 233 218 241 248 229 308 55 50 46 352 332 289 316 341 0 356
253 255 251 240 232 203 194 201 196 188 182 193 203 197 191 190 181 181 178 180 186 195 200 203 214 201 206 206 159 146 139 130 95 185 351 355 317 313 321 330 345 54 48
251 251 249 253 224 204 193 195 195 192 198 195 196 195 185 185 181 183 184 183 179 179 190 199 178 181 146 143 128 110 116 142 149 106 9 22 24 10 17 349 344 11 56
243 242 245 247 257 194 198 198 196 199 196 197 180 187 186 185 186 187 189 178 176 185 178 178 156 146 139 130 122 130 135 125 118 89 88 79 44 9 350 346 16 6 2
236 232 241 241 243 201 197 201 204 203 200 193 182 186 186 187 190 192 187 180 171 174 175 160 145 134 136 134 116 114 113 110 93 93 142 114 55 44 45 35 14 353 354
243 247 240 240 239 207 205 200 200 199 198 189 184 180 187 192 185 180 176 167 172 169 164 151 145 145 130 118 108 106 108 89 84 86 137 98 86 64 46 28 344 0 350
241 265 236 239 238 224 205 202 194 197 192 183 183 175 178 193 191 182 178 172 167 163 156 150 149 144 127 115 105 96 90 74 66 73 85 87 112 74 82 335 327 332 345
275 259 229 230 225 217 207 200 196 193 185 174 174 180 179 181 184 180 171 168 161 152 149 149 144 130 119 107 97 97 91 72 64 64 39 48 29 16 328 324 319 329 332
284 267 213 223 215 212 206 203 199 194 175 179 180 182 180 181 175 171 169 153 149 145 146 145 134 124 120 112 101 110 93 67 70 62 19 52 29 356 339 336 338 340 337
310 305 246 214 207 210 202 195 197 178 177 175 174 171 168 167 168 166 156 152 145 143 140 134 128 125 124 119 128 120 98 94 64 39 32 24 8 1 3 357 352 345 341
315 297 223 197 193 194 192 185 179 178 168 170 170 165 164 163 160 155 149 144 143 140 141 141 136 133 133 132 126 119 106 103 98 67 22 15 358 1 358 355 351 342 338
358 166 176 178 165 172 174 151 174 45 159 154 157 158 160 158 153 148 147 143 145 147 146 143 137 135 141 136 130 123 109 126 71 32 19 10 0 348 348 349 346 338 338
252 153 145 157 149 160 158 165 137 35 126 152 148 150 150 149 150 149 144 149 150 149 146 142 137 137 139 138 146 116 105 84 54 20 355 357 347 356 354 355 350 348 342
180 131 136 134 140 143 156 144 166 132 134 138 140 146 150 149 150 144 147 150 145 140 136 130 129 126 127 125 113 87 76 61 39 50 27 8 10 3 5 5 5 12 17
180 162 143 131 126 126 127 129 138 153 147 140 145 150 150 151 147 141 144 142 137 134 126 124 117 119 116 115 105 95 81 67 54 30 18 14 13 18 21 26 30 35 37
164 151 137 131 131 135 140 138 145 137 142 140 145 153 155 148 141 142 138 135 135 127 122 117 113 117 118 112 111 112 90 67 46 13 11 21 35 41 38 34 33 29 37
138 142 129 136 135 139 150 138 136 138 132 141 148 151 148 143 141 138 135 133 125 119 118 117 119 118 121 119 137 119 107 109 70 15 32 44 47 43 39 32 27 20 27
122 131 121 122 135 142 142 140 133 131 138 147 148 143 141 138 134 135 130 129 121 115 118 116 111 117 128 148 134 132 125 102 65 58 58 51 46 40 36 30 23 20 18
124 129 129 124 134 141 141 135 136 140 146 143 138 135 135 135 134 125 123 115 111 112 112 116 116 114 118 121 120 135 120 93 83 72 63 57 48 38 35 33 20 15 18
118 128 130 131 127 127 139 135 136 144 144 141 139 138 131 129 124 116 113 111 108 108 113 120 114 110 101 101 109 111 107 106 86 76 66 56 45 37 40 38 19 11 19
120 126 124 124 129 132 136 137 142 147 144 137 133 133 131 126 122 117 119 114 114 119 119 108 105 112 112 100 102 101 102 99 92 76 65 60 56 46 41 39 23 14 22
120 127 127 128 125 132 136 144 147 144 140 138 136 133 130 131 131 134 141 133 135 130 112 106 109 116 112 110 110 108 100 90 80 70 64 59 51 42 39 36 27 14 16
123 120 122 127 132 139 143 144 144 147 140 137 136 135 138 141 142 139 130 130 133 141 136 104 116 112 105 105 107 103 95 84 67 61 56 55 47 38 34 30 23 11 11